Location: Whitehorse
(60.7170°N, 135.0500°W)
Time: 12:09:38
(UTC-08:00)

N. Korean satellite - Visible Passes

Search period start: 21 February 2019 00:00
Search period end: 03 March 2019 00:00
Orbit: 456 x 510 km, 97.2° (Epoch: 20 February)

Date Brightness Start Highest point End Pass type
(mag) Time Alt. Az. Time Alt. Az. Time Alt. Az.
21 Feb 7.9 07:07:24 10° NNE 07:10:47 42° E 07:14:05 10° S visible
21 Feb 10.0 19:27:34 10° SW 19:29:56 16° W 19:32:16 10° NW visible
22 Feb 9.0 06:42:52 10° NE 06:45:52 26° E 06:48:49 10° SSE visible
22 Feb 9.3 19:01:53 10° SSW 19:04:57 25° W 19:07:59 10° NW visible
23 Feb 9.8 06:18:34 10° NE 06:20:53 16° E 06:23:09 10° SE visible
24 Feb 10.4 05:55:17 10° ENE 05:55:49 10° E 05:56:21 10° E visible
24 Feb 7.0 07:26:32 10° NNE 07:30:01 65° ESE 07:33:26 10° S visible
24 Feb 10.4 19:48:10 10° WSW 19:49:21 11° W 19:50:31 10° WNW visible
25 Feb 8.2 07:01:53 10° NNE 07:05:10 38° E 07:08:24 10° SSE visible
25 Feb 9.9 19:21:48 10° SW 19:24:18 18° W 19:26:47 10° NW visible
26 Feb 9.3 06:37:22 10° NE 06:40:14 23° E 06:43:03 10° SSE visible
27 Feb 9.9 06:13:10 10° NE 06:15:12 15° E 06:17:15 10° ESE visible
28 Feb 7.3 07:20:56 10° NNE 07:24:23 57° ESE 07:27:46 10° S visible
28 Feb 10.3 19:42:09 10° WSW 19:43:40 12° W 19:45:11 10° WNW visible
01 Mar 8.5 06:56:18 10° NNE 06:59:30 34° E 07:02:40 10° SSE visible
01 Mar 9.9 19:16:00 10° SW 19:18:38 19° W 19:21:14 10° NW visible
02 Mar 9.5 06:31:49 10° NE 06:34:32 21° E 06:37:14 10° SE visible
